FW4559 Weather Reports


time (UTC)temp
F
wind
direction
speed
knots
gust
knots
rain 1hr
in
rain 24hr
in
rain mn
in
humidity
%
barometer
mb
20260507074012 57 358 0.0 0.9 0.02 0.04 0.02 95 1009.0
20260507073513 57 358 0.0 2.6 0.02 0.04 0.02 95 1008.8
20260507073012 57 358 0.9 4.3 0.02 0.04 0.02 95 1008.6
20260507072514 57 335 1.7 3.5 0.02 0.04 0.02 95 1009.0
20260507072010 57 174 0.0 0.9 0.02 0.04 0.02 95 1008.8
20260507071511 57 174 0.0 0.9 0.02 0.04 0.02 95 1008.9
20260507071012 57 174 0.0 0.0 0.02 0.04 0.02 94 1009.0
20260507070512 57 174 0.0 1.7 0.02 0.04 0.02 94 1008.9
20260507070013 58 174 0.0 4.3 0.00 0.02 0.00 94 1008.9
20260507065509 57 178 0.9 4.3 0.00 0.02 0.00 95 1009.3
20260507065009 57 224 0.9 3.5 0.00 0.02 0.00 95 1009.4
20260507064509 57 143 0.9 2.6 0.00 0.02 0.00 95 1009.3
20260507064008 57 163 0.0 2.6 0.00 0.02 0.00 94 1009.2
20260507063509 57 149 0.0 1.7 0.00 0.02 0.00 94 1009.3
20260507063008 57 207 0.0 0.9 0.00 0.02 0.00 94 1009.4
20260507062507 57 196 0.0 3.5 0.00 0.02 0.00 95 1009.5
20260507062007 57 204 1.7 5.2 0.00 0.02 0.00 95 1009.6
20260507061507 57 174 1.7 5.2 0.00 0.02 0.00 95 1009.4
20260507061006 57 162 0.9 5.2 0.00 0.02 0.00 95 1009.5
20260507060506 57 158 1.7 5.2 0.00 0.02 0.00 95 1009.7
20260507060005 57 110 1.7 3.5 0.00 0.02 0.00 95 1009.8
20260507055504 57 158 0.9 3.5 0.00 0.02 0.00 95 1009.9
20260507055005 57 143 0.9 2.6 0.00 0.02 0.00 95 1009.9
20260507054511 57 174 1.7 3.5 0.00 0.02 0.00 94 1010.0
20260507054003 57 181 0.9 3.5 0.00 0.02 0.00 94 1010.2
20260507053503 57 165 0.9 2.6 0.00 0.02 0.00 94 1010.0
20260507053001 57 148 0.9 2.6 0.00 0.02 0.00 94 1010.2
20260507052502 57 148 0.9 2.6 0.00 0.02 0.00 94 1010.5
20260507052002 57 203 0.0 1.7 0.00 0.02 0.00 94 1010.5
20260507051501 57 203 0.0 2.6 0.00 0.02 0.00 94 1010.4
20260507051101 57 171 0.9 2.6 0.00 0.02 0.00 94 1010.4
20260507050600 57 107 0.0 1.7 0.00 0.02 0.00 94 1010.3
20260507050100 57 107 0.0 1.7 0.00 0.02 0.00 94 1010.3
20260507045559 57 169 0.9 1.7 0.00 0.02 0.00 93 1010.3
20260507045057 57 146 0.9 1.7 0.00 0.02 0.00 93 1010.9
20260507044558 58 269 0.0 1.7 0.00 0.02 0.00 93 1011.4
20260507044057 58 221 0.0 2.6 0.00 0.02 0.00 93 1011.6
20260507043556 58 221 0.0 2.6 0.00 0.02 0.00 93 1011.4
20260507043056 58 238 0.0 2.6 0.00 0.02 0.00 93 1011.2
20260507042556 58 214 0.0 5.2 0.00 0.02 0.00 93 1011.4
20260507042054 57 201 0.9 5.2 0.00 0.02 0.00 94 1011.8
20260507041554 57 248 1.7 4.3 0.00 0.02 0.00 94 1011.6
20260507041052 57 144 0.0 1.7 0.00 0.02 0.00 94 1011.3
20260507040551 57 232 0.0 0.9 0.00 0.02 0.00 94 1011.3
20260507040054 57 232 0.0 0.9 0.00 0.02 0.00 94 1011.3
20260507035549 57 134 0.0 0.9 0.00 0.02 0.02 94 1011.3
20260507035150 57 134 0.0 0.9 0.00 0.02 0.02 94 1011.3
20260507034554 57 134 0.0 2.6 0.00 0.02 0.02 94 1011.1
20260507034048 57 134 0.0 2.6 0.00 0.02 0.02 94 1010.8
20260507033548 57 158 0.9 2.6 0.00 0.02 0.02 94 1011.1
20260507033052 57 189 0.0 1.7 0.00 0.02 0.02 93 1011.0
20260507032549 58 203 0.0 1.7 0.01 0.02 0.02 93 1010.9
20260507032047 58 208 0.0 1.7 0.01 0.02 0.02 93 1010.6
20260507031548 58 237 0.0 1.7 0.01 0.02 0.02 93 1010.3
20260507031048 58 237 0.0 1.7 0.01 0.02 0.02 93 1010.3
20260507030546 58 237 0.0 0.9 0.01 0.02 0.02 92 1010.2
20260507030047 58 236 0.0 0.9 0.02 0.02 0.02 92 1010.2
20260507025546 58 237 0.0 1.7 0.02 0.02 0.02 92 1010.2
20260507025046 58 214 0.0 1.7 0.02 0.02 0.02 92 1010.6
20260507024555 58 228 0.0 2.6 0.02 0.02 0.02 91 1010.3
20260507024046 58 227 0.0 2.6 0.02 0.02 0.02 91 1010.4
20260507023548 59 138 0.0 4.3 0.02 0.02 0.02 91 1010.1
20260507023049 59 94 1.7 5.2 0.02 0.02 0.02 89 1010.5
20260507022546 59 328 0.9 7.0 0.01 0.01 0.01 89 1011.8
20260507022045 59 247 1.7 7.0 0.01 0.01 0.01 89 1011.8
20260507021645 59 201 0.0 7.0 0.01 0.01 0.01 89 1011.7
20260507021044 59 207 1.7 8.7 0.01 0.01 0.01 88 1011.6
20260507020545 60 267 3.5 12.2 0.01 0.01 0.01 88 1011.6
20260507020104 60 250 2.6 12.2 0.00 0.00 0.00 87 1011.7
20260507015543 60 200 0.9 12.2 0.00 0.00 0.00 87 1011.8
20260507015043 60 305 4.3 12.2 0.00 0.00 0.00 86 1011.7
20260507014546 60 208 0.9 7.0 0.00 0.00 0.00 86 1011.6
20260507014042 60 202 2.6 8.7 0.00 0.00 0.00 86 1011.4
20260507013541 61 110 2.6 8.7 0.00 0.00 0.00 85 1011.0
20260507013051 61 170 1.7 8.7 0.00 0.00 0.00 85 1011.0
20260507012541 61 235 3.5 10.4 0.00 0.00 0.00 84 1010.9
20260507012041 61 248 3.5 7.8 0.00 0.00 0.00 84 1010.9
20260507011541 61 291 0.9 7.8 0.00 0.00 0.00 84 1010.7
20260507011042 61 261 1.7 7.8 0.00 0.00 0.00 85 1011.0
20260507010541 61 269 0.9 6.1 0.00 0.00 0.00 85 1011.0
20260507010045 61 330 0.9 6.1 0.00 0.00 0.00 86 1010.9
20260507005541 61 266 2.6 9.6 0.00 0.00 0.00 86 1010.7
20260507005043 61 217 3.5 9.6 0.00 0.00 0.00 85 1010.6
20260507004551 61 269 1.7 9.6 0.00 0.00 0.00 85 1010.5
20260507004041 61 224 4.3 9.6 0.00 0.00 0.00 85 1010.7
20260507003539 61 262 5.2 9.6 0.00 0.00 0.00 85 1010.8
20260507003044 62 173 2.6 9.6 0.00 0.00 0.00 85 1010.7
20260507002539 62 219 1.7 8.7 0.00 0.00 0.00 84 1010.7
20260507002039 62 250 3.5 8.7 0.00 0.00 0.00 84 1010.7
20260507001545 62 258 0.9 4.3 0.00 0.00 0.00 85 1010.4
20260507001038 62 130 0.9 4.3 0.00 0.00 0.00 86 1010.4
20260507000541 62 201 2.6 7.8 0.00 0.00 0.00 87 1010.5
20260507000038 62 215 1.7 7.8 0.00 0.00 0.00 87 1010.6
20260506235538 61 174 0.9 3.5 0.00 0.00 0.00 89 1010.5
20260506235038 61 175 0.9 3.5 0.00 0.00 0.00 89 1010.4
20260506234543 61 222 0.9 2.6 0.00 0.00 0.00 90 1010.6
20260506234037 61 134 0.0 6.1 0.00 0.00 0.00 90 1010.5
20260506233537 61 129 1.7 6.1 0.00 0.00 0.00 90 1010.3
20260506233039 62 102 1.7 4.3 0.00 0.00 0.00 90 1010.1
20260506232536 62 214 0.9 2.6 0.00 0.00 0.00 90 1010.1
20260506232036 62 140 0.0 2.6 0.00 0.00 0.00 90 1009.9
20260506231536 62 117 0.9 4.3 0.00 0.00 0.00 90 1010.0
20260506231037 62 147 1.7 4.3 0.00 0.00 0.00 90 1010.1
20260506230536 62 153 1.7 6.1 0.00 0.00 0.00 89 1010.1
20260506230045 62 174 0.9 6.1 0.00 0.00 0.00 89 1010.2
20260506225535 62 167 2.6 6.1 0.00 0.00 0.00 88 1010.2
20260506225035 62 144 0.9 7.0 0.00 0.00 0.00 88 1010.1
20260506224535 63 115 2.6 7.0 0.00 0.00 0.00 88 1009.9
20260506224036 63 205 0.9 2.6 0.00 0.00 0.00 88 1010.0
20260506223534 62 140 0.0 2.6 0.00 0.00 0.00 88 1009.8
20260506223041 63 150 0.9 5.2 0.00 0.00 0.00 88 1010.0
20260506222534 63 124 0.9 5.2 0.00 0.00 0.00 87 1010.2
20260506222034 63 165 1.7 4.3 0.00 0.00 0.00 87 1010.4
20260506221533 63 185 1.7 5.2 0.00 0.00 0.00 86 1010.3
20260506221033 63 127 0.9 5.2 0.00 0.00 0.00 86 1010.5
20260506220533 63 138 1.7 5.2 0.00 0.00 0.00 86 1010.5
20260506220033 64 184 2.6 4.3 0.00 0.00 0.00 85 1010.7
20260506215534 64 158 0.9 3.5 0.00 0.00 0.00 85 1010.7
20260506215036 64 243 1.7 9.6 0.00 0.00 0.00 84 1010.7
20260506214540 64 181 4.3 9.6 0.00 0.00 0.00 84 1010.8
20260506214032 64 135 3.5 7.8 0.00 0.00 0.00 84 1010.6
20260506213532 65 157 1.7 5.2 0.00 0.00 0.00 84 1010.6
20260506213033 65 134 1.7 7.8 0.00 0.00 0.00 83 1010.4
20260506212531 65 172 2.6 7.8 0.00 0.00 0.00 83 1010.4
20260506212031 65 161 2.6 7.8 0.00 0.00 0.00 82 1010.3
20260506211530 66 186 2.6 7.8 0.00 0.00 0.00 80 1010.2
20260506211031 66 138 0.9 7.0 0.00 0.00 0.00 80 1010.2
20260506210531 66 155 1.7 5.2 0.00 0.00 0.00 80 1010.1
20260506210030 66 139 1.7 4.3 0.00 0.00 0.00 81 1010.1
20260506205530 65 153 0.9 4.3 0.00 0.00 0.00 81 1009.9
20260506205030 65 151 0.9 6.1 0.00 0.00 0.00 81 1009.8
20260506204530 65 155 0.9 7.0 0.00 0.00 0.00 82 1009.8
20260506204029 65 207 2.6 7.0 0.00 0.00 0.00 81 1009.7
20260506203528 65 164 2.6 6.1 0.00 0.00 0.00 80 1009.8
20260506203032 66 77 2.6 6.1 0.00 0.00 0.00 79 1009.6
20260506202527 66 220 2.6 7.8 0.00 0.00 0.00 79 1009.8
20260506202027 66 62 4.3 11.3 0.00 0.00 0.00 78 1009.9
20260506201527 67 195 4.3 8.7 0.00 0.00 0.00 77 1010.0
20260506201026 68 141 4.3 8.7 0.00 0.00 0.00 75 1009.9
20260506200525 69 203 3.5 7.0 0.00 0.00 0.00 73 1010.1
20260506200025 69 160 2.6 9.6 0.00 0.00 0.00 71 1010.1
20260506195525 70 151 3.5 9.6 0.00 0.00 0.00 69 1010.2
20260506195025 70 189 6.1 11.3 0.00 0.00 0.00 64 1010.2
20260506194524 70 225 2.6 11.3 0.00 0.00 0.00 66 1010.2
20260506194021 69 178 1.7 6.1 0.00 0.00 0.00 70 1010.5
20260506193522 68 200 2.6 8.7 0.00 0.00 0.00 73 1010.5
20260506193021 69 146 2.6 8.7 0.00 0.00 0.00 71 1010.3
20260506192521 69 131 0.9 7.0 0.00 0.00 0.00 73 1010.1
20260506192020 68 142 1.7 6.1 0.00 0.00 0.00 74 1009.8
20260506191520 68 151 2.6 10.4 0.00 0.00 0.00 73 1010.0
20260506191020 68 150 2.6 10.4 0.00 0.00 0.00 73 1010.1
20260506190520 69 176 1.7 7.8 0.00 0.00 0.00 73 1010.0
20260506190020 68 193 1.7 7.0 0.00 0.00 0.00 73 1009.9
20260506185521 68 135 2.6 7.0 0.00 0.00 0.00 71 1010.0
20260506185022 69 166 2.6 7.0 0.00 0.00 0.00 70 1010.1
20260506184536 69 162 2.6 4.3 0.00 0.00 0.00 72 1010.0
20260506184017 68 146 2.6 4.3 0.00 0.00 0.00 74 1010.0
20260506183514 67 187 2.6 4.3 0.00 0.00 0.00 73 1010.0
20260506183021 66 163 1.7 3.5 0.00 0.00 0.00 76 1010.0
20260506182512 65 188 1.7 6.1 0.00 0.00 0.00 78 1009.9
20260506182014 65 138 1.7 6.1 0.00 0.00 0.00 79 1009.9
20260506181515 64 150 1.7 3.5 0.00 0.00 0.00 79 1010.0
20260506181017 64 145 0.9 5.2 0.00 0.00 0.00 79 1009.9
20260506180513 64 163 1.7 5.2 0.00 0.00 0.00 79 1010.1
20260506180012 64 138 1.7 7.8 0.00 0.00 0.00 77 1010.1
20260506175513 65 102 2.6 7.8 0.00 0.00 0.00 75 1010.0
20260506175011 66 140 1.7 9.6 0.00 0.00 0.00 72 1010.2
20260506174511 66 226 2.6 10.4 0.00 0.00 0.00 72 1010.2
20260506174010 66 230 1.7 10.4 0.00 0.00 0.00 72 1010.4
20260506173510 66 220 3.5 9.6 0.00 0.00 0.00 72 1010.6
20260506173009 65 232 2.6 9.6 0.00 0.00 0.00 73 1010.3
20260506172509 65 167 1.7 10.4 0.00 0.00 0.00 75 1010.4
20260506172009 64 191 3.5 8.7 0.00 0.00 0.00 74 1010.5
20260506171509 64 258 3.5 7.0 0.00 0.00 0.00 76 1011.0
20260506171011 64 130 0.9 8.7 0.00 0.00 0.00 78 1011.4
20260506170508 63 230 0.9 10.4 0.00 0.00 0.00 78 1011.8
20260506170009 63 226 4.3 10.4 0.00 0.00 0.00 78 1011.9
20260506165508 63 222 2.6 7.0 0.00 0.00 0.00 77 1011.8
20260506165008 64 331 0.9 11.3 0.00 0.00 0.00 77 1011.8
20260506164509 64 259 1.7 11.3 0.00 0.00 0.00 76 1012.1
20260506164008 64 156 2.6 12.2 0.00 0.00 0.00 75 1012.2
20260506163506 65 257 4.3 12.2 0.00 0.00 0.00 71 1012.1
20260506163008 66 175 0.9 12.2 0.00 0.00 0.00 70 1012.2
20260506162507 66 219 2.6 14.8 0.00 0.00 0.00 69 1012.3
20260506162006 65 207 4.3 14.8 0.00 0.00 0.00 69 1012.4
20260506161505 65 248 2.6 13.9 0.00 0.00 0.00 70 1012.4
20260506161003 65 262 3.5 12.2 0.00 0.00 0.00 70 1012.3
20260506160502 64 225 1.7 12.2 0.00 0.00 0.00 74 1012.2
20260506160109 63 186 3.5 11.3 0.00 0.00 0.00 75 1012.2
20260506155602 62 217 2.6 6.1 0.00 0.00 0.00 78 1012.1
20260506155100 62 167 1.7 6.1 0.00 0.00 0.00 77 1012.0
20260506154604 62 163 1.7 7.8 0.00 0.00 0.00 77 1011.9
20260506154100 62 128 2.6 7.8 0.00 0.00 0.00 77 1011.7
20260506153559 62 176 0.9 7.8 0.00 0.00 0.00 77 1011.7
20260506153113 62 154 3.5 8.7 0.00 0.00 0.00 76 1011.6
20260506152559 63 120 3.5 8.7 0.00 0.00 0.00 77 1011.5
20260506152057 62 181 1.7 4.3 0.00 0.00 0.00 77 1011.4
20260506151557 62 157 0.9 2.6 0.00 0.00 0.00 78 1011.3
20260506151100 61 198 0.0 5.2 0.00 0.00 0.00 80 1011.2
20260506150556 60 203 1.7 6.1 0.00 0.00 0.00 80 1011.3
20260506145556 61 132 3.5 7.8 0.00 0.00 0.00 79 1011.0
20260506145055 61 148 0.9 3.5 0.00 0.00 0.00 79 1010.8
20260506144557 61 139 0.9 3.5 0.00 0.00 0.00 79 1010.7
20260506144054 61 172 0.9 7.0 0.00 0.00 0.00 78 1010.8
20260506143554 62 165 2.6 7.0 0.00 0.00 0.00 76 1011.0
20260506143053 62 198 3.5 7.0 0.00 0.00 0.00 77 1011.1
20260506142552 61 145 0.9 5.2 0.00 0.00 0.00 78 1011.1
20260506142050 60 201 0.0 3.5 0.00 0.00 0.00 79 1011.2
20260506141551 60 169 0.0 1.7 0.00 0.00 0.00 79 1011.1
20260506141050 60 138 0.0 2.6 0.00 0.00 0.00 80 1010.9
20260506140552 60 128 0.9 3.5 0.00 0.00 0.00 79 1010.9
20260506140050 60 167 0.0 4.3 0.00 0.00 0.00 79 1011.0
20260506135550 60 141 1.7 4.3 0.00 0.00 0.00 79 1010.9
20260506135049 60 146 0.0 3.5 0.00 0.00 0.00 80 1010.9
20260506134549 60 124 1.7 3.5 0.00 0.00 0.00 78 1010.9
20260506134050 60 152 0.0 1.7 0.00 0.00 0.00 79 1011.0
20260506133549 60 170 0.0 5.2 0.00 0.00 0.00 79 1011.1
20260506133148 59 159 0.9 5.2 0.00 0.00 0.00 80 1011.1
20260506132549 59 163 0.0 4.3 0.00 0.00 0.00 80 1011.1
20260506132049 59 215 1.7 3.5 0.00 0.00 0.00 80 1010.9
20260506131553 59 141 0.9 3.5 0.00 0.00 0.00 79 1011.0
20260506131047 59 147 0.9 6.1 0.00 0.00 0.00 79 1011.0
20260506130547 59 148 1.7 6.1 0.00 0.00 0.00 79 1010.8
20260506130047 59 139 0.9 4.3 0.00 0.00 0.00 79 1011.0
20260506125548 59 202 1.7 4.3 0.00 0.00 0.00 79 1011.0
20260506125046 59 153 1.7 4.3 0.00 0.00 0.00 79 1010.7
20260506124545 58 216 0.9 7.0 0.00 0.00 0.00 80 1010.9
20260506124045 58 148 2.6 7.8 0.00 0.00 0.00 80 1010.9
20260506123545 58 137 2.6 7.8 0.00 0.00 0.00 81 1011.0
20260506123045 57 146 2.6 7.8 0.00 0.00 0.00 81 1010.8
20260506122544 57 114 1.7 5.2 0.00 0.00 0.00 82 1010.8
20260506122045 57 102 1.7 9.6 0.00 0.00 0.00 82 1010.9
20260506121545 56 214 3.5 9.6 0.00 0.00 0.00 82 1010.9
20260506121044 56 156 2.6 8.7 0.00 0.00 0.00 83 1010.8
20260506120544 56 148 2.6 8.7 0.00 0.00 0.00 83 1010.8
20260506120043 56 179 1.7 7.8 0.00 0.00 0.00 83 1011.0
20260506115543 56 194 3.5 8.7 0.00 0.00 0.00 83 1011.1
20260506115042 56 179 4.3 11.3 0.00 0.00 0.00 83 1011.0
20260506114544 56 199 5.2 11.3 0.00 0.00 0.00 82 1011.1
20260506114042 57 130 3.5 7.8 0.00 0.00 0.00 81 1010.9
20260506113541 57 192 2.6 8.7 0.00 0.00 0.00 81 1011.1
20260506113043 57 134 2.6 11.3 0.00 0.00 0.00 80 1010.7
20260506112541 57 226 4.3 15.6 0.00 0.00 0.00 80 1010.8
20260506112042 57 181 4.3 12.2 0.00 0.00 0.00 80 1010.9
20260506111540 56 165 2.6 11.3 0.00 0.00 0.00 81 1010.9
20260506111040 56 274 3.5 13.0 0.00 0.00 0.00 81 1010.6
20260506110543 56 224 3.5 13.0 0.00 0.00 0.00 81 1010.7
20260506110040 55 161 1.7 7.8 0.00 0.00 0.00 83 1010.7
20260506105542 56 205 1.7 9.6 0.00 0.00 0.00 83 1010.5
20260506105042 55 213 2.6 6.1 0.00 0.00 0.00 84 1010.4
20260506104539 55 139 1.7 6.1 0.00 0.00 0.00 84 1010.6
20260506104038 55 131 1.7 11.3 0.00 0.00 0.00 85 1010.4
20260506103538 55 173 2.6 11.3 0.00 0.00 0.00 85 1010.5
20260506103048 54 127 0.9 5.2 0.00 0.00 0.00 86 1010.6
20260506102538 54 163 1.7 6.1 0.00 0.00 0.00 86 1010.5
20260506102038 54 191 1.7 6.1 0.00 0.00 0.00 86 1010.4
20260506101538 54 180 2.6 5.2 0.00 0.00 0.00 87 1010.3
20260506101037 54 158 1.7 5.2 0.00 0.00 0.00 87 1010.4
20260506100539 54 127 1.7 12.2 0.00 0.00 0.00 86 1010.4
20260506100039 54 167 5.2 12.2 0.00 0.00 0.00 86 1010.3
20260506095538 54 150 1.7 15.6 0.00 0.00 0.00 86 1010.2
20260506095037 54 135 6.1 15.6 0.00 0.00 0.00 87 1010.1
20260506094538 54 193 3.5 11.3 0.00 0.00 0.00 87 1010.0
20260506094038 54 104 4.3 7.8 0.00 0.00 0.00 87 1010.2
20260506093634 54 203 1.7 13.0 0.00 0.00 0.00 87 1010.5
20260506093033 55 211 3.5 14.8 0.00 0.00 0.00 87 1010.5
20260506092536 55 177 4.3 14.8 0.00 0.00 0.00 86 1010.4
20260506092033 55 193 3.5 13.0 0.00 0.00 0.00 86 1010.6
20260506091534 55 180 1.7 13.0 0.00 0.00 0.00 86 1010.6
20260506091032 55 141 5.2 13.0 0.00 0.00 0.00 85 1010.6
20260506090529 55 224 1.7 13.9 0.00 0.00 0.00 84 1010.4
20260506090032 55 167 3.5 15.6 0.00 0.00 0.00 84 1010.1
20260506085528 56 158 4.3 9.6 0.00 0.00 0.00 83 1010.1
20260506085025 56 254 2.6 11.3 0.00 0.00 0.00 82 1010.4
20260506084525 56 260 4.3 11.3 0.00 0.00 0.00 81 1010.5
20260506084024 56 218 5.2 12.2 0.00 0.00 0.00 80 1010.6
20260506083523 56 181 5.2 13.0 0.00 0.00 0.00 80 1010.5
20260506083021 56 191 3.5 12.2 0.00 0.00 0.00 79 1010.8
20260506082521 56 353 2.6 11.3 0.00 0.00 0.00 79 1010.7
20260506082021 56 165 1.7 6.1 0.00 0.00 0.00 78 1010.9
20260506081521 56 217 0.9 7.8 0.00 0.00 0.00 78 1011.0
20260506081021 56 235 2.6 7.8 0.00 0.00 0.00 78 1010.9
20260506080521 56 238 3.5 13.9 0.00 0.00 0.00 77 1011.0